Location: Cardiff
(53.7833°N, 113.6000°W)
Time: 07:03:48
(UTC+00:00)

NOAA 15 - Pass Details

Date: 03 December 2023
Orbit: 797 x 810 km, 98.6° (Epoch: 04 March)

Event Time Altitude Azimuth Distance (km) Brightness Sun altitude
Rises 00:12:42 0° 107° (ESE) 3,326 7.4 -7.8°
Reaches altitude 10° 00:15:48 10° 88° (E) 2,397 6.5 -8.2°
Maximum altitude 00:19:05 17° 49° (NE) 1,951 6.0 -8.6°
Drops below altitude 10° 00:22:23 10° 11° (N) 2,400 6.7 -9.1°
Sets 00:25:29 0° 352° (N) 3,333 7.6 -9.5°
